Kirksville, MO

1:46 PM CDT on May 29, 2017 (GMT -0500)
Kirksville Regional

Weather History for KIRK - September, 2013

Change the Weather History Date:

Thursday, September 19, 2013

  Actual Average Record
Temperature  
Mean Temperature 79 °F 63 °F  
Max Temperature 92 °F 75 °F 95 °F (1948)
Min Temperature 66 °F 52 °F 34 °F (1991)
Degree Days  
Heating Degree Days 0 4  
Month to date heating degree days 19 36  
Since 1 July heating degree days 32 43  
Cooling Degree Days 14 2  
Month to date cooling degree days 171 68  
Year to date cooling degree days 981 912  
Growing Degree Days 28 (Base 50)    
Moisture  
Dew Point 66 °F    
Average Humidity 66    
Maximum Humidity 90    
Minimum Humidity 41    
Precipitation  
Precipitation 0.39 in 0.13 in 2.25 in (1929)
Month to date precipitation 1.32 2.78  
Year to date precipitation 31.21 30.19  
Sea Level Pressure  
Sea Level Pressure 29.87 in    
Wind  
Wind Speed 11 mph (SSW)    
Max Wind Speed 24 mph    
Max Gust Speed 32 mph    
Visibility 8 miles    
Events Rain , Thunderstorm    
T = Trace of Precipitation, MM = Missing Value Source: NWS Daily Summary

Daily Weather History Graph

Daily Weather History Graph

Search for Another Location

Airport or City:

Trip Planner

Search our weather history database for the weather conditions in past years. The results will help you decide how hot, cold, wet, or windy it might be!

Date:

Astronomy

Sep. 19, 2013 Rise Set
Actual Time 6:55 AM CDT 7:11 PM CDT
Civil Twilight 6:28 AM CDT 7:38 PM CDT
Nautical Twilight 5:56 AM CDT 8:10 PM CDT
Astronomical Twilight 5:23 AM CDT 8:43 PM CDT
Moon 7:10 PM CDT (9/19) 7:04 AM CDT (9/19)
Length of Visible Light 13h 10m
Length of Day
12h 16m
Full, 100% of the Moon is Illuminated
Sep 19
Full
Sep 26
Last Quarter
Oct 4
New
Oct 11
First Quarter
Oct 18
Full

Hourly Weather History & Observations

Time (CDT) Temp. Heat Index Dew Point Humidity Pressure Visibility Wind Dir Wind Speed Gust Speed Precip Events Conditions
12:55 AM 73.9 °F - 66.9 °F 79% 29.91 in 10.0 mi South 10.4 mph - N/A   Clear
1:55 AM 73.0 °F - 66.9 °F 81% 29.90 in 10.0 mi South 9.2 mph - N/A   Clear
2:55 AM 72.0 °F - 66.9 °F 84% 29.90 in 9.0 mi South 8.1 mph - N/A   Clear
3:55 AM 72.0 °F - 66.9 °F 84% 29.89 in 9.0 mi SSW 8.1 mph - N/A   Clear
4:55 AM 72.0 °F - 68.0 °F 87% 29.89 in 8.0 mi SSW 8.1 mph - N/A   Clear
5:55 AM 73.0 °F - 68.0 °F 84% 29.88 in 9.0 mi SSW 13.8 mph 19.6 mph N/A   Scattered Clouds
6:55 AM 73.0 °F - 66.9 °F 81% 29.89 in 8.0 mi SSW 10.4 mph 18.4 mph N/A   Scattered Clouds
7:55 AM 75.0 °F - 66.9 °F 76% 29.90 in 7.0 mi South 12.7 mph 23.0 mph N/A   Overcast
8:55 AM 79.0 °F - 66.9 °F 66% 29.89 in 8.0 mi SSW 12.7 mph 24.2 mph N/A   Clear
9:55 AM 81.0 °F 83.3 °F 66.9 °F 62% 29.90 in 8.0 mi SSW 17.3 mph 27.6 mph N/A   Clear
10:55 AM 84.0 °F 86.3 °F 66.0 °F 55% 29.90 in 9.0 mi SW 15.0 mph 24.2 mph N/A   Clear
11:55 AM 89.1 °F 91.0 °F 64.9 °F 45% 29.89 in 10.0 mi SSW 15.0 mph 26.5 mph N/A   Clear
12:55 PM 91.0 °F 93.0 °F 64.9 °F 42% 29.88 in 10.0 mi SSW 15.0 mph 25.3 mph N/A   Clear
1:55 PM 88.0 °F 89.6 °F 64.9 °F 46% 29.86 in 10.0 mi SW 15.0 mph 18.4 mph N/A   Partly Cloudy
2:55 PM 91.0 °F 93.0 °F 64.9 °F 42% 29.83 in 10.0 mi SW 13.8 mph 23.0 mph N/A   Clear
3:55 PM 91.0 °F 93.8 °F 66.0 °F 44% 29.78 in 10.0 mi SSW 12.7 mph 23.0 mph N/A   Clear
4:55 PM 89.1 °F 90.0 °F 63.0 °F 42% 29.78 in 10.0 mi SW 13.8 mph 26.5 mph N/A   Clear
5:55 PM 87.1 °F 88.9 °F 64.9 °F 48% 29.79 in 10.0 mi SSW 11.5 mph 19.6 mph N/A   Partly Cloudy
6:23 PM 86.0 °F 87.3 °F 64.4 °F 48% 29.81 in 10.0 mi SSW 9.2 mph - N/A Thunderstorm Thunderstorm
6:53 PM 80.6 °F 82.7 °F 66.2 °F 61% 29.82 in 9.0 mi Variable 4.6 mph - 0.00 in Rain Light Rain
6:55 PM 80.1 °F 82.3 °F 66.9 °F 64% 29.82 in 9.0 mi NW 17.3 mph 31.1 mph 0.00 in Rain Light Rain
7:15 PM 73.4 °F - 62.6 °F 69% 29.86 in 10.0 mi NNW 16.1 mph 28.8 mph 0.00 in   Overcast
7:55 PM 69.1 °F - 64.0 °F 84% 29.86 in 10.0 mi NW 9.2 mph 17.3 mph 0.01 in Rain , Thunderstorm Light Rain
8:49 PM 66.2 °F - 64.4 °F 94% 29.87 in 10.0 mi NNW 4.6 mph - 0.08 in Thunderstorm Mostly Cloudy
8:55 PM 66.9 °F - 64.9 °F 93% 29.91 in 10.0 mi SW 9.2 mph - 0.08 in Rain , Thunderstorm Light Thunderstorms and Rain
9:03 PM 66.2 °F - 64.4 °F 94% 29.90 in 1.8 mi WSW 3.5 mph - 0.03 in Rain , Thunderstorm Heavy Thunderstorms and Rain
9:13 PM 66.2 °F - 64.4 °F 94% 29.89 in 3.0 mi Calm Calm - 0.11 in Rain , Thunderstorm Light Thunderstorms and Rain
9:39 PM 66.2 °F - 66.2 °F 100% 29.91 in 7.0 mi SSE 8.1 mph - 0.17 in Rain Light Rain
9:48 PM 66.2 °F - 66.2 °F 100% 29.91 in 5.0 mi South 9.2 mph - 0.19 in Rain , Thunderstorm Rain
9:55 PM 66.9 °F - 66.0 °F 97% 29.91 in 5.0 mi South 9.2 mph - 0.22 in Rain , Thunderstorm Thunderstorms and Rain
10:08 PM 66.2 °F - 66.2 °F 100% 29.91 in 6.0 mi South 8.1 mph - 0.04 in Rain , Thunderstorm Rain
10:13 PM 66.2 °F - 66.2 °F 100% 29.90 in 6.0 mi South 5.8 mph - 0.05 in Rain Light Rain
10:55 PM 66.9 °F - 66.0 °F 97% 29.87 in 10.0 mi SSE 10.4 mph - 0.07 in Rain Light Rain
11:55 PM 66.9 °F - 66.0 °F 97% 29.88 in 7.0 mi Calm Calm - 0.00 in   Overcast